This is the latest recevied weather packets stored in our database for station/object KD2ZLA. If no packets are shown the sender has not sent any weather packets the latest 1 day(s).
| Time | Temp. | Humidity | Pressure | Rain* | Wind** | Luminosity | Snow |
|---|---|---|---|---|---|---|---|
| 1777978074 | 15.56° C | 76% | 1001 hPa | 0.51 mm | 1.34 m/s, 260° | 10 W/m² | - |
| 1777977772 | 16.11° C | 72% | 1000.8 hPa | 0 mm | 1.79 m/s, 221° | 9 W/m² | - |
| 1777977467 | 16.11° C | 69% | 1001.3 hPa | 0 mm | 2.24 m/s, 293° | 8 W/m² | - |
| 1777977166 | 16.67° C | 69% | 1001.2 hPa | 0 mm | 0.89 m/s, 271° | 7 W/m² | - |
| 1777976863 | 16.11° C | 69% | 1001.1 hPa | 0 mm | 4.02 m/s, 263° | 4 W/m² | - |
| 1777976561 | 16.67° C | 68% | 1001 hPa | 0.51 mm | 3.58 m/s, 240° | 3 W/m² | - |
| 1777976259 | 16.67° C | 67% | 1000.9 hPa | 0.51 mm | 3.13 m/s, 236° | 3 W/m² | - |
| 1777975955 | 16.67° C | 63% | 1000.8 hPa | 0 mm | 5.36 m/s, 240° | 3 W/m² | - |
| 1777975652 | 16.67° C | 62% | 1000.9 hPa | 0 mm | 5.81 m/s, 218° | 3 W/m² | - |
| 1777975349 | 16.67° C | 62% | 1000.9 hPa | 0 mm | 2.68 m/s, 236° | 4 W/m² | - |
| 1777975044 | 16.11° C | 62% | 1000.8 hPa | 0 mm | 0 m/s | 3 W/m² | - |
| 1777974742 | 16.67° C | 61% | 1000.8 hPa | 0 mm | 0.89 m/s, 258° | 1 W/m² | - |
| 1777974437 | 16.11° C | 61% | 1000.9 hPa | 0 mm | 2.68 m/s, 230° | 1 W/m² | - |
| 1777974134 | 16.11° C | 62% | 1000.9 hPa | 0 mm | 2.24 m/s, 254° | 0 W/m² | - |
| 1777973830 | 16.11° C | 61% | 1001 hPa | 0 mm | 2.24 m/s, 212° | 0 W/m² | - |
| 1777973528 | 16.11° C | 62% | 1000.6 hPa | 0 mm | 1.79 m/s, 258° | 0 W/m² | - |
| 1777973224 | 16.11° C | 62% | 1000.6 hPa | 0 mm | 2.68 m/s, 236° | 0 W/m² | - |
| 1777972923 | 16.11° C | 62% | 1000.8 hPa | 0 mm | 2.24 m/s, 228° | 0 W/m² | - |
| 1777972620 | 16.11° C | 62% | 1000.8 hPa | 0 mm | 0.89 m/s, 273° | 0 W/m² | - |
| 1777972318 | 16.11° C | 62% | 1000.9 hPa | 0 mm | 4.02 m/s, 223° | 0 W/m² | - |
| 1777972015 | 15.56° C | 63% | 1000.9 hPa | 0 mm | 1.34 m/s, 240° | 0 W/m² | - |
| 1777971714 | 15.56° C | 64% | 1001 hPa | 0 mm | 0.45 m/s, 181° | 0 W/m² | - |
| 1777971410 | 15.56° C | 64% | 1001 hPa | 0 mm | 0 m/s | 0 W/m² | - |
| 1777971109 | 15.56° C | 64% | 1001.2 hPa | 0 mm | 0.89 m/s, 252° | 0 W/m² | - |
| 1777970806 | 15.56° C | 64% | 1001.3 hPa | 0 mm | 1.79 m/s, 215° | 0 W/m² | - |
* Rain latest hour (hover to see other rain measurements)
** Current wind speed in m/s (hover to see current wind gust speed)